This is the latest recevied weather packets stored in our database for station/object KA1BMF-13. If no packets are shown the sender has not sent any weather packets the latest 10 day(s).
| Time | Temp. | Humidity | Pressure | Rain* | Wind** | Luminosity | Snow |
|---|---|---|---|---|---|---|---|
| 1788185720 | 22.22° C | 79% | 1020.2 hPa | 0 mm | - | 285 W/m² | - |
| 1788185117 | 22.22° C | 79% | 1020.1 hPa | 0 mm | - | 210 W/m² | - |
| 1788184518 | 22.22° C | 79% | 1020.1 hPa | 0 mm | - | 445 W/m² | - |
| 1788183917 | 22.22° C | 78% | 1020.1 hPa | 0 mm | - | 513 W/m² | - |
| 1788183318 | 21.67° C | 80% | 1020 hPa | 0 mm | - | 464 W/m² | - |
| 1788182718 | 21.11° C | 82% | 1019.9 hPa | 0 mm | - | 464 W/m² | - |
| 1788182118 | 20.56° C | 85% | 1020.1 hPa | 0 mm | - | 417 W/m² | - |
| 1788181519 | 20° C | 86% | 1020.1 hPa | 0 mm | - | 79 W/m² | - |
| 1788180926 | 20° C | 88% | 1019.9 hPa | 0 mm | - | 69 W/m² | - |
| 1788180319 | 19.44° C | 88% | 1020.1 hPa | 0 mm | - | 63 W/m² | - |
| 1788179719 | 19.44° C | 89% | 1020 hPa | 0 mm | - | 53 W/m² | - |
| 1788179119 | 18.89° C | 90% | 1020.1 hPa | 0 mm | - | 79 W/m² | - |
| 1788178519 | 18.89° C | 93% | 1019.9 hPa | 0 mm | - | 99 W/m² | - |
| 1788177919 | 18.33° C | 95% | 1019.8 hPa | 0 mm | - | 95 W/m² | - |
| 1788177319 | 18.33° C | 96% | 1019.9 hPa | 0 mm | - | 52 W/m² | - |
| 1788176720 | 17.78° C | 97% | 1019.8 hPa | 0 mm | - | 58 W/m² | - |
| 1788176120 | 17.78° C | 97% | 1019.8 hPa | 0 mm | - | 43 W/m² | - |
| 1788175534 | 17.78° C | 98% | 1019.6 hPa | 0 mm | - | 54 W/m² | - |
| 1788174920 | 17.22° C | 98% | 1019.4 hPa | 0 mm | - | 47 W/m² | - |
| 1788174320 | 17.22° C | 98% | 1019.3 hPa | 0 mm | - | 44 W/m² | - |
| 1788173720 | 17.22° C | 98% | 1019.1 hPa | 0 mm | - | 26 W/m² | - |
| 1788173121 | 17.22° C | 98% | 1019.1 hPa | 0 mm | - | 14 W/m² | - |
| 1788172521 | 17.22° C | 98% | 1019 hPa | 0 mm | - | 9 W/m² | - |
| 1788171921 | 17.22° C | 98% | 1019 hPa | 0 mm | - | 4 W/m² | - |
| 1788171321 | 17.22° C | 98% | 1019 hPa | 0 mm | - | 2 W/m² | - |
* Rain latest hour (hover to see other rain measurements)
** Current wind speed in m/s (hover to see current wind gust speed)